Location: Clanezzo
(45.7500°N, 9.6000°E)
Time: 04:26:59
(UTC+00:00)

Cosmos 858 Rocket - Pass Details

Date: 12 May 2021
Orbit: 755 x 775 km, 74.1° (Epoch: 18 June)

Event Time Altitude Azimuth Distance (km) Brightness Sun altitude
Exits shadow 21:46:28 57° 156° (SSE) 890 4.4 -22.6°
Maximum altitude 21:47:17 67° 108° (ESE) 824 4.4 -22.7°
Drops below altitude 10° 21:52:29 10° 26° (NNE) 2,309 7.5 -23.0°
Sets 21:54:53 0° 24° (NNE) 3,243 8.4 -23.2°
